Weather History for PAEN - November, 2011

Change the Weather History Date:

Thursday, November 10, 2011

  Actual Average Record
Temperature  
Mean Temperature 22 °F -  
Max Temperature 30 °F 31 °F 48 °F (2014)
Min Temperature 10 °F 18 °F -11 °F (1969)
Degree Days  
Heating Degree Days 42    
Moisture  
Dew Point 18 °F    
Average Humidity 93    
Maximum Humidity 100    
Minimum Humidity 59    
Precipitation  
Precipitation 0.00 in - - ()
Sea Level Pressure  
Sea Level Pressure 29.62 in    
Wind  
Wind Speed 5 mph (ENE)    
Max Wind Speed 9 mph    
Max Gust Speed -    
Visibility 8 miles    
Events Snow    
Averages and records for this station are not official NWS values.
T = Trace of Precipitation, MM = Missing Value Source: NWS Daily Summary

Daily Weather History Graph

Daily Weather History Graph

Search for Another Location

Airport or City:

Trip Planner

Search our weather history database for the weather conditions in past years. The results will help you decide how hot, cold, wet, or windy it might be!

Date:

Astronomy

Nov. 10, 2011 Rise Set
Actual Time 8:53 AM AKST 4:43 PM AKST
Civil Twilight 8:04 AM AKST 5:32 PM AKST
Nautical Twilight 7:12 AM AKST 6:23 PM AKST
Astronomical Twilight 6:23 AM AKST 7:13 PM AKST
Moon 4:16 PM AKST (11/10) 9:13 AM AKST (11/10)
Length of Visible Light 9h 27m
Length of Day
7h 49m
Full, 100% of the Moon is Illuminated
Nov 10
Full
Nov 18
Last Quarter
Nov 24
New
Dec 2
First Quarter
Dec 10
Full

Hourly Weather History & Observations

Time (AKST) Temp. Windchill Dew Point Humidity Pressure Visibility Wind Dir Wind Speed Gust Speed Precip Events Conditions
12:08 AM 19.4 °F 14.3 °F 17.6 °F 93% 29.61 in 2.0 mi NNE 3.5 mph - 0.00 in Snow Light Snow
12:34 AM 19.4 °F 12.8 °F 17.6 °F 93% 29.60 in 3.0 mi NE 4.6 mph - 0.00 in Snow Light Snow
12:53 AM 19.4 °F 11.5 °F 17.6 °F 93% 29.59 in 7.0 mi NE 5.8 mph - N/A   Overcast
1:53 AM 19.4 °F 14.3 °F 17.6 °F 93% 29.58 in 10.0 mi ENE 3.5 mph - N/A   Overcast
2:39 AM 19.4 °F 14.3 °F 17.6 °F 93% 29.56 in 10.0 mi ENE 3.5 mph - N/A   Overcast
3:53 AM 19.0 °F - 17.1 °F 92% 29.55 in 10.0 mi Calm Calm - N/A   Overcast
4:53 AM 19.0 °F 13.9 °F 17.1 °F 92% 29.54 in 10.0 mi East 3.5 mph - N/A   Overcast
5:53 AM 19.0 °F 11.1 °F 18.0 °F 96% 29.52 in 7.0 mi East 5.8 mph - N/A   Overcast
6:53 AM 19.0 °F 12.3 °F 19.0 °F 100% 29.52 in 4.0 mi NNE 4.6 mph - N/A   Overcast
7:15 AM 19.4 °F 12.8 °F 19.4 °F 100% 29.51 in 3.0 mi NNE 4.6 mph - N/A   Overcast
7:29 AM 19.4 °F 8.6 °F 19.4 °F 100% 29.48 in 3.0 mi East 9.2 mph - 0.00 in Snow Light Snow
7:34 AM 19.4 °F 9.5 °F 19.4 °F 100% 29.48 in 2.5 mi East 8.1 mph - 0.00 in Snow Light Snow
7:37 AM 19.4 °F 10.4 °F 19.4 °F 100% 29.49 in 1.8 mi NE 6.9 mph - 0.00 in Snow Light Snow
7:51 AM 19.4 °F 11.5 °F 19.4 °F 100% 29.50 in 2.0 mi North 5.8 mph - 0.00 in Snow Light Snow
7:53 AM 19.0 °F 11.1 °F 19.0 °F 100% 29.51 in 3.0 mi North 5.8 mph - 0.00 in Snow Light Snow
8:26 AM 19.4 °F 12.8 °F 17.6 °F 93% 29.52 in 10.0 mi NNE 4.6 mph - 0.00 in   Overcast
8:40 AM 19.4 °F 11.5 °F 17.6 °F 93% 29.54 in 10.0 mi North 5.8 mph - 0.00 in   Overcast
8:53 AM 19.0 °F 12.3 °F 18.0 °F 96% 29.56 in 10.0 mi North 4.6 mph - 0.00 in   Overcast
9:09 AM 19.4 °F 10.4 °F 17.6 °F 93% 29.56 in 10.0 mi NE 6.9 mph - N/A   Overcast
9:53 AM 19.9 °F 10.1 °F 19.0 °F 96% 29.59 in 10.0 mi East 8.1 mph - N/A   Overcast
10:53 AM 21.0 °F 13.4 °F 19.0 °F 92% 29.61 in 10.0 mi ESE 5.8 mph - N/A   Overcast
11:46 AM 19.4 °F 9.5 °F 19.4 °F 100% 29.62 in 10.0 mi SSE 8.1 mph - N/A   Clear
11:53 AM 21.0 °F 13.4 °F 19.0 °F 92% 29.64 in 10.0 mi SE 5.8 mph - N/A   Scattered Clouds
12:53 PM 19.9 °F 14.9 °F 19.0 °F 96% 29.67 in 10.0 mi NNE 3.5 mph - N/A   Clear
1:53 PM 19.9 °F - 19.0 °F 96% 29.69 in 10.0 mi Calm Calm - N/A   Clear
2:53 PM 21.9 °F 17.2 °F 21.0 °F 96% 29.70 in 10.0 mi SSE 3.5 mph - N/A   Clear
3:53 PM 23.0 °F - 19.9 °F 88% 29.71 in 10.0 mi Calm Calm - N/A   Clear
4:53 PM 19.9 °F 12.1 °F 19.0 °F 96% 29.72 in 10.0 mi East 5.8 mph - N/A   Clear
5:53 PM 19.9 °F - 18.0 °F 92% 29.74 in 10.0 mi Calm Calm - N/A   Clear
6:53 PM 23.0 °F 14.7 °F 19.0 °F 85% 29.75 in 10.0 mi SE 6.9 mph - N/A   Clear
7:53 PM 26.1 °F 18.4 °F 17.1 °F 69% 29.78 in 10.0 mi ENE 6.9 mph - N/A   Clear
8:53 PM 30.9 °F - 18.0 °F 59% 29.80 in 10.0 mi Calm Calm - N/A   Clear
9:53 PM 19.9 °F 9.3 °F 15.1 °F 81% 29.82 in 10.0 mi East 9.2 mph - N/A   Clear
10:53 PM 15.1 °F - 12.0 °F 88% 29.83 in 10.0 mi Calm Calm - N/A   Clear
11:53 PM 10.0 °F 1.8 °F 9.0 °F 95% 29.85 in 10.0 mi North 4.6 mph - N/A   Clear